Home   Weather   Anaheim   Past weeks

Flag for USA Past Weather in Anaheim, California, USA — Yesterday and Last 2 Weeks

Now
54 °F

Mostly cloudy.


Feels Like: 54 °F
Forecast: 49 / 65 °F
Wind: No wind

Location: Fullerton Municipal Airport

Current Time: Dec 7, 2016 at 2:56:07 am

Latest Report: Dec 7, 2016 at 1:53 am


Visibility: 9 mi

Pressure: 30.01 "Hg

Humidity: 90%

Dew Point: 51 °F

Location of AnaheimLocation

Past Weather in Anaheim — Graph

°F

Anaheim Temperature Yesterday

Maximum temperature yesterday: 64 °F (at 11:53 am)
Minimum temperature yesterday: 53 °F (at 5:53 am)
Average temperature yesterday: 58 °F

High & Low Weather Summary for the Past Weeks

 TemperatureHumidityPressure
High83 °F (Nov 24, 1:53 pm)93% (Nov 28, 1:53 am)30.16 "Hg (Nov 28, 1:53 am)
Low42 °F (Dec 4, 5:53 am)7% (Nov 24, 2:53 pm)29.82 "Hg (Nov 28, 3:53 pm)
Average57 °F56%30.01 "Hg
* Reported Nov 22 1:53 am — Dec 7 1:53 am, Anaheim, Weather by CustomWeather, © 2016

Note: Actual official high and low records may vary slightly from our data, if they occured in-between our weather recording intervals... More about our weather records

Advertising

Anaheim Weather History for the Previous 24 Hours

Scroll right to see more
 ConditionsComfort  
Time TempWeatherWind HumidityBarometerVisibility
1:53 am
Wed, Dec 7
54 °FMostly cloudy.No wind90%30.01 "Hg9 mi
12:53 am54 °FOvercast.No wind90%30.01 "Hg9 mi
11:53 pm
Tue, Dec 6
54 °FOvercast.No wind90%30.01 "Hg8 mi
10:53 pm53 °FOvercast.No wind93%30.01 "Hg8 mi
9:53 pm55 °FOvercast.No wind90%30.00 "Hg8 mi
8:53 pm57 °FOvercast.No wind83%29.99 "Hg9 mi
7:53 pm58 °FPassing clouds.No wind84%29.99 "Hg10 mi
6:53 pm59 °FClear.3 mph81%29.98 "Hg10 mi
5:53 pm60 °FPassing clouds.3 mph78%29.97 "Hg10 mi
4:53 pm61 °FPassing clouds.5 mph72%29.96 "Hg10 mi
3:53 pm62 °FSunny.6 mph67%29.95 "Hg10 mi
2:53 pm64 °FSunny.8 mph61%29.94 "Hg10 mi
1:53 pm64 °FScattered clouds.7 mph61%29.93 "Hg10 mi
12:53 pm64 °FPartly sunny.6 mph63%29.95 "Hg10 mi
11:53 am64 °FPartly sunny.5 mph63%29.97 "Hg10 mi
10:53 am62 °FBroken clouds.No wind67%29.99 "Hg10 mi
9:53 am61 °FPartly sunny.No wind67%30.01 "Hg7 mi
8:53 am59 °FOvercast.5 mph75%30.00 "Hg5 mi
7:53 am55 °FFog.No wind87%29.99 "Hg5 mi
6:53 am53 °FFog.No wind89%29.98 "Hg5 mi
5:53 am53 °FPassing clouds.3 mph89%29.96 "Hg7 mi
4:53 am55 °FOvercast.5 mph83%29.95 "Hg9 mi
3:53 am55 °FOvercast.3 mph83%29.95 "Hg10 mi
2:53 am54 °FOvercast.5 mph86%29.96 "Hg10 mi
Weather by CustomWeather, © 2016

See weather overviewHow to use our weather pages